Location: Bougoura
(13.1861°N, 5.0773°W)
Time: 10:03:00
(UTC+00:00)

Okean O Rocket - Visible Passes

Search period start: 17 January 2021 00:00
Search period end: 27 January 2021 00:00
Orbit: 623 x 644 km, 98.2° (Epoch: 16 January)

Date Brightness Start Highest point End Pass type
(mag) Time Alt. Az. Time Alt. Az. Time Alt. Az.
17 Jan 2.7 06:17:49 10° NNE 06:22:01 50° E 06:26:13 10° S visible
17 Jan 2.6 18:35:20 10° S 18:39:40 53° W 18:44:00 10° NNW visible
18 Jan 4.1 18:57:21 10° SSW 19:01:07 27° W 19:04:52 10° NW visible
19 Jan 4.9 19:20:15 10° SW 19:22:35 14° W 19:24:55 10° WNW visible
20 Jan 4.7 05:47:07 10° NE 05:50:05 18° E 05:53:03 10° SE visible
21 Jan 3.5 06:07:35 10° NE 06:11:32 35° E 06:15:29 10° SSE visible
22 Jan 3.4 18:46:31 10° S 18:50:39 38° W 18:54:45 10° NNW visible
23 Jan 4.6 19:08:52 10° SSW 19:12:05 20° W 19:15:19 10° NW visible
24 Jan 5.0 05:37:40 10° ENE 05:39:34 13° E 05:41:29 10° SE visible
25 Jan 4.2 05:57:29 10° NE 06:01:02 25° E 06:04:35 10° SSE visible
26 Jan 2.7 06:18:18 10° NNE 06:22:29 49° E 06:26:40 10° S visible
26 Jan 2.6 18:35:49 10° S 18:40:10 54° W 18:44:30 10° NNW visible
